Regional Weather Roundup
Issued by NWS

Home | Current Version | Previous Version | Text Only | Print | Product List | Glossary Off
Versions: 1 2 3 4 5 6 7 8 9 10 11 12 13 14 15 16 17 18 19 20 21 22 23 24 25 26 27 28 29 30 31 32 33 34 35 36 37 38 39 40 41 42 43 44 45 46 47 48 49 50

707
ASUS44 KJAN 280103
RWRMS

MISSISSIPPI HOURLY WEATHER ROUNDUP
NATIONAL WEATHER SERVICE JACKSON MS
700 PM CST THU NOV 27 2014

NOTE: "FAIR: INDICATES FEW OR NO CLOUDS BELOW 12,000 FEET WITH NO
SIGNIFICANT WEATHER AND/OR OBSTRUCTIONS TO VISIBILITY.

MSZ001>002-007>008-010>013-018>021-025>028-034>036-280200-
NORTHWEST MISSISSIPPI

CITY           SKY/WX    TMP DP  RH WIND       PRES   REMARKS
CLARKSDALE     FAIR      37  32  81 CALM      30.49S
CLEVELAND      FAIR      37  32  81 NE3       30.48S
GREENWOOD      CLEAR     36  30  79 CALM      30.48S
GREENVILLE     CLEAR     39  31  72 CALM      30.48R
GRENADA        FAIR      34  30  86 CALM      30.49S
OLIVE BRANCH   CLEAR     34  32  93 CALM      30.48S
OXFORD         FAIR      30  27  86 CALM      30.49S
TUNICA         CLEAR     34  32  93 NE3       30.49S
$$

MSZ003>006-009-014>017-022>024-029>033-037>039-280200-
NORTHEAST MISSISSIPPI

CITY           SKY/WX    TMP DP  RH WIND       PRES   REMARKS
COLUMBUS AFB   CLEAR     32  28  83 CALM      30.48R
CORINTH        FAIR      34  27  75 CALM      30.48S
GOLDN TRIANGLE CLEAR     36  28  75 CALM      30.46S
STARKVILLE       N/A     32  30  93 CALM      30.48R
TUPELO         CLEAR     35  27  72 NE3       30.48S
$$

MSZ040-058-280200-
CENTRAL MISSISSIPPI

CITY           SKY/WX    TMP DP  RH WIND       PRES   REMARKS
JACKSON INTL   CLEAR     38  30  73 N6        30.46S WCI  33
JACKSON HAWKNS CLEAR     40  30  67 CALM      30.47S
MERIDIAN KEY   CLEAR     37  31  78 N5        30.47R WCI  33
MERIDIAN NAS   CLEAR     39  30  70 N3        30.48R
RAYMOND        FAIR      39  36  87 MISG      30.47S
VICKSBURG      CLEAR     40  31  70 E7        30.49R
$$

MSZ059>079-280200-
SOUTH MISSISSIPPI

CITY           SKY/WX    TMP DP  RH WIND       PRES   REMARKS
BROOKHAVEN     FAIR      39  32  75 CALM      30.46S
HATTIESBURG    CLEAR     46  34  62 N5        30.46R
MCCOMB         CLEAR     47  29  49 N6        30.44S
NATCHEZ        CLEAR     43  30  61 N3        30.46S
PINE BELT      CLEAR     43  30  61 N6        30.46R
$$

MSZ080>082-280200-
COASTAL MISSISSIPPI

CITY           SKY/WX    TMP DP  RH WIND       PRES   REMARKS
BAY ST LOUIS   CLEAR     43  34  70 MISG      30.44R
BILOXI         CLEAR     49  33  55 N2        30.43R
PASCAGOULA     CLEAR     46  32  58 NW3       30.43R
GULFPORT       CLEAR     48  33  56 N5        30.43R
$$



USA.gov is the U.S. government's official web portal to all federal, state and local government web resources and services.